Location: Greenwich
(51.4790°N, 0.0090°E)
Time: 18:11:00
(UTC+00:00)

Tiangong - Visible Passes

Search period start: 27 February 2024 00:00
Search period end: 08 March 2024 00:00
Orbit: 375 x 385 km, 41.5° (Epoch: 26 February)

Date Brightness Start Highest point End Pass type
(mag) Time Alt. Az. Time Alt. Az. Time Alt. Az.
01 Mar 0.5 19:24:36 10° S 19:25:05 11° S 19:25:05 11° S visible
02 Mar 0.8 19:58:47 10° SSW 19:58:53 10° SSW 19:58:53 10° SSW visible
03 Mar 0.2 18:57:48 10° SSW 18:59:16 13° S 19:00:28 11° SSE visible
04 Mar 0.2 19:32:22 10° SW 19:33:58 13° S 19:34:02 13° S visible
05 Mar 0.3 18:31:00 10° SSW 18:32:39 13° S 18:34:17 10° SE visible
06 Mar 0.4 19:05:49 10° SW 19:07:10 12° S 19:08:31 10° SSE visible
